Fremont, MI

2:33 PM EDT on August 23, 2019 (GMT -0400)
Fremont

Weather History for KFFX - July, 2019

Change the Weather History Date:

Monday, July 22, 2019

  Actual Average (KMKG) Record (KMKG)
Temperature  
Mean Temperature 67 °F -  
Max Temperature 76 °F 80 °F 93 °F (1901)
Min Temperature 58 °F 61 °F 46 °F (1947)
Cooling Degree Days 2    
Growing Degree Days 17 (Base 50)    
Moisture  
Dew Point 50 °F    
Average Humidity 56    
Maximum Humidity 75    
Minimum Humidity 32    
Precipitation  
Precipitation 0.00 in - - ()
Sea Level Pressure  
Sea Level Pressure 30.03 in    
Wind  
Wind Speed 7 mph (North)    
Max Wind Speed 16 mph    
Max Gust Speed 22 mph    
Visibility 10 miles    
Events      
Averages and records for this station are not official NWS values.
T = Trace of Precipitation, MM = Missing Value Source: NWS Daily Summary

Daily Weather History Graph

Daily Weather History Graph

Search for Another Location

Airport or City:

Astronomy

Jul. 22, 2019 Rise Set
Actual Time 6:23 AM EDT 9:17 PM EDT
Civil Twilight 5:49 AM EDT 9:50 PM EDT
Nautical Twilight 5:06 AM EDT 10:33 PM EDT
Astronomical Twilight 4:16 AM EDT 11:23 PM EDT
Moon 12:04 AM EDT (7/22) 11:47 AM EDT (7/22)
Length of Visible Light 16h 01m
Length of Day
14h 53m
Waning Gibbous, 72% of the Moon is Illuminated
Jul 22
Waning Gibbous
Jul 24
Last Quarter
Jul 31
New
Aug 7
First Quarter
Aug 15
Full

Hourly Weather History & Observations

Time (EDT) Temp. Dew Point Humidity Pressure Visibility Wind Dir Wind Speed Gust Speed Precip Events Conditions
12:15 AM 66.6 °F 55.6 °F 68% 29.98 in 10.0 mi NNE 5.8 mph - N/A   Clear
12:38 AM 65.8 °F 56.3 °F 71% 29.98 in 10.0 mi NNE 6.9 mph - N/A   Clear
12:56 AM 65.5 °F 56.3 °F 72% 29.99 in 10.0 mi NNE 5.8 mph - N/A   Clear
1:15 AM 65.5 °F 56.3 °F 72% 30.00 in 10.0 mi NNE 4.6 mph - N/A   Clear
1:16 AM 65.5 °F 56.3 °F 72% 30.00 in 10.0 mi NNE 4.6 mph - N/A   Clear
1:35 AM 65.3 °F 56.1 °F 72% 30.00 in 10.0 mi NNE 5.8 mph - N/A   Clear
1:59 AM 64.9 °F 55.4 °F 71% 30.00 in 10.0 mi NNE 6.9 mph - N/A   Clear
2:17 AM 64.6 °F 54.3 °F 69% 29.99 in 10.0 mi NNE 6.9 mph - N/A   Clear
2:35 AM 64.0 °F 53.6 °F 69% 30.00 in 10.0 mi North 5.8 mph - N/A   Clear
2:36 AM 64.0 °F 53.6 °F 69% 30.00 in 10.0 mi NNE 5.8 mph - N/A   Clear
2:55 AM 63.3 °F 52.9 °F 69% 30.00 in 10.0 mi NE 5.8 mph - N/A   Clear
2:56 AM 63.1 °F 52.9 °F 69% 30.00 in 10.0 mi NE 6.9 mph - N/A   Clear
3:15 AM 63.0 °F 52.3 °F 68% 30.00 in 10.0 mi NNE 5.8 mph - N/A   Clear
3:37 AM 62.1 °F 52.7 °F 71% 30.00 in 10.0 mi North 3.5 mph - N/A   Clear
3:56 AM 61.7 °F 53.1 °F 73% 30.01 in 10.0 mi North 4.6 mph - N/A   Clear
4:15 AM 61.3 °F 52.9 °F 74% 30.00 in 10.0 mi North 4.6 mph - N/A   Scattered Clouds
4:16 AM 61.2 °F 52.7 °F 74% 30.00 in 10.0 mi North 4.6 mph - N/A   Scattered Clouds
4:35 AM 61.5 °F 53.1 °F 74% 30.00 in 10.0 mi North 4.6 mph - N/A   Overcast
4:36 AM 61.5 °F 53.1 °F 74% 30.00 in 10.0 mi North 5.8 mph - N/A   Overcast
4:59 AM 61.7 °F 52.9 °F 73% 30.01 in 10.0 mi North 5.8 mph - N/A   Overcast
5:17 AM 61.7 °F 52.7 °F 72% 30.01 in 10.0 mi North 6.9 mph - N/A   Overcast
5:35 AM 61.0 °F 53.1 °F 75% 30.01 in 10.0 mi North 8.1 mph - N/A   Overcast
5:55 AM 60.8 °F 52.9 °F 75% 30.01 in 10.0 mi North 8.1 mph - N/A   Overcast
6:15 AM 60.8 °F 51.6 °F 72% 30.01 in 10.0 mi North 4.6 mph - N/A   Overcast
6:20 AM 60.4 °F 51.6 °F 73% 30.01 in 10.0 mi North 5.8 mph - N/A   Overcast
6:38 AM 60.1 °F 50.5 °F 71% 30.02 in 10.0 mi North 5.8 mph - N/A   Mostly Cloudy
6:56 AM 59.7 °F 50.2 °F 71% 30.02 in 10.0 mi NNE 3.5 mph - N/A   Scattered Clouds
7:15 AM 59.9 °F 50.5 °F 71% 30.03 in 10.0 mi North 3.5 mph - N/A   Clear
7:35 AM 60.3 °F 50.9 °F 71% 30.03 in 10.0 mi NNW 3.5 mph - N/A   Clear
7:59 AM 60.3 °F 50.4 °F 70% 30.04 in 10.0 mi NNW 8.1 mph - N/A   Clear
8:17 AM 60.4 °F 50.2 °F 69% 30.03 in 10.0 mi North 10.4 mph - N/A   Clear
8:35 AM 61.9 °F 49.1 °F 63% 30.04 in 10.0 mi North 11.5 mph - N/A   Clear
8:55 AM 63.1 °F 49.8 °F 62% 30.04 in 10.0 mi North 11.5 mph - N/A   Clear
8:56 AM 63.1 °F 49.6 °F 61% 30.04 in 10.0 mi North 11.5 mph - N/A   Clear
9:15 AM 63.9 °F 49.3 °F 59% 30.05 in 10.0 mi North 12.7 mph 19.6 mph N/A   Clear
9:19 AM 63.3 °F 49.6 °F 61% 30.05 in 10.0 mi North 10.4 mph - N/A   Clear
9:38 AM 64.4 °F 48.7 °F 57% 30.05 in 10.0 mi North 11.5 mph 17.3 mph N/A   Clear
9:56 AM 66.2 °F 49.8 °F 55% 30.04 in 10.0 mi NNW 11.5 mph - N/A   Clear
10:15 AM 66.7 °F 49.8 °F 54% 30.04 in 10.0 mi NNW 15.0 mph - N/A   Clear
10:35 AM 67.5 °F 50.4 °F 54% 30.03 in 10.0 mi North 11.5 mph 20.7 mph N/A   Clear
10:36 AM 67.5 °F 50.4 °F 54% 30.03 in 10.0 mi North 10.4 mph 20.7 mph N/A   Clear
10:59 AM 68.4 °F 51.1 °F 54% 30.03 in 10.0 mi NNW 10.4 mph - N/A   Clear
11:17 AM 70.0 °F 51.4 °F 52% 30.03 in 10.0 mi North 9.2 mph 18.4 mph N/A   Clear
11:35 AM 70.3 °F 51.4 °F 51% 30.03 in 10.0 mi North 15.0 mph - N/A   Scattered Clouds
11:36 AM 70.5 °F 51.4 °F 51% 30.03 in 10.0 mi North 12.7 mph - N/A   Scattered Clouds
11:55 AM 71.2 °F 51.3 °F 49% 30.03 in 10.0 mi NNE 10.4 mph 18.4 mph N/A   Clear
11:56 AM 71.4 °F 51.3 °F 49% 30.03 in 10.0 mi NNE 9.2 mph 18.4 mph N/A   Clear
12:15 PM 72.7 °F 51.8 °F 48% 30.03 in 10.0 mi North 8.1 mph 16.1 mph N/A   Clear
12:38 PM 73.4 °F 49.8 °F 43% 30.03 in 10.0 mi NNE 10.4 mph 21.9 mph N/A   Clear
12:55 PM 73.2 °F 49.1 °F 42% 30.03 in 10.0 mi North 12.7 mph 16.1 mph N/A   Scattered Clouds
1:15 PM 74.1 °F 49.1 °F 41% 30.03 in 10.0 mi North 10.4 mph - N/A   Scattered Clouds
1:35 PM 74.3 °F 48.9 °F 41% 30.03 in 10.0 mi NNE 11.5 mph 17.3 mph N/A   Mostly Cloudy
1:59 PM 75.0 °F 48.2 °F 39% 30.03 in 10.0 mi North 11.5 mph 18.4 mph N/A   Scattered Clouds
2:16 PM 75.2 °F 47.8 °F 38% 30.02 in 10.0 mi NNW 13.8 mph 19.6 mph N/A   Scattered Clouds
2:35 PM 75.4 °F 47.7 °F 37% 30.02 in 10.0 mi North 10.4 mph 18.4 mph N/A   Scattered Clouds
2:36 PM 75.4 °F 47.8 °F 38% 30.02 in 10.0 mi North 8.1 mph 18.4 mph N/A   Scattered Clouds
2:55 PM 76.3 °F 45.7 °F 34% 30.02 in 10.0 mi NNW 15.0 mph 18.4 mph N/A   Scattered Clouds
3:15 PM 76.5 °F 44.4 °F 32% 30.02 in 10.0 mi North 11.5 mph 18.4 mph N/A   Scattered Clouds
3:38 PM 76.6 °F 44.4 °F 32% 30.02 in 10.0 mi NNW 12.7 mph 18.4 mph N/A   Clear
3:56 PM 75.7 °F 43.9 °F 32% 30.02 in 10.0 mi NNW 12.7 mph - N/A   Clear
4:15 PM 76.1 °F 44.1 °F 32% 30.02 in 10.0 mi North 8.1 mph 17.3 mph N/A   Scattered Clouds
4:35 PM 75.6 °F 48.4 °F 38% 30.02 in 10.0 mi North 16.1 mph 19.6 mph N/A   Mostly Cloudy
4:59 PM 76.3 °F 48.7 °F 38% 30.02 in 10.0 mi North 11.5 mph 19.6 mph N/A   Mostly Cloudy
5:17 PM 75.9 °F 48.6 °F 38% 30.02 in 10.0 mi NNW 12.7 mph 20.7 mph N/A   Scattered Clouds
5:35 PM 75.0 °F 48.2 °F 39% 30.02 in 10.0 mi North 13.8 mph 20.7 mph N/A   Scattered Clouds
5:55 PM 75.0 °F 48.2 °F 39% 30.03 in 10.0 mi NNW 13.8 mph - N/A   Clear
6:15 PM 75.0 °F 48.7 °F 39% 30.02 in 10.0 mi NNW 11.5 mph - N/A   Clear
6:38 PM 73.8 °F 46.9 °F 38% 30.03 in 10.0 mi NNW 11.5 mph 18.4 mph N/A   Clear
6:56 PM 73.4 °F 47.1 °F 39% 30.03 in 10.0 mi North 13.8 mph 18.4 mph N/A   Clear
7:15 PM 73.0 °F 46.0 °F 38% 30.03 in 10.0 mi North 13.8 mph 18.4 mph N/A   Clear
7:16 PM 73.0 °F 46.0 °F 38% 30.03 in 10.0 mi North 13.8 mph 18.4 mph N/A   Clear
7:35 PM 72.5 °F 46.2 °F 39% 30.03 in 10.0 mi NNW 13.8 mph - N/A   Clear
7:36 PM 72.5 °F 46.0 °F 39% 30.03 in 10.0 mi NNW 13.8 mph - N/A   Clear
7:59 PM 71.4 °F 46.2 °F 41% 30.04 in 10.0 mi North 11.5 mph - N/A   Clear
8:17 PM 70.2 °F 46.2 °F 42% 30.05 in 10.0 mi NNW 6.9 mph - N/A   Clear
8:35 PM 69.1 °F 45.7 °F 43% 30.05 in 10.0 mi NNW 5.8 mph - N/A   Clear
8:55 PM 66.6 °F 47.3 °F 50% 30.05 in 10.0 mi NNW 5.8 mph - N/A   Clear
8:56 PM 66.4 °F 47.3 °F 50% 30.05 in 10.0 mi NNW 5.8 mph - N/A   Clear
9:15 PM 64.4 °F 47.5 °F 54% 30.05 in 10.0 mi NW 4.6 mph - N/A   Clear
9:20 PM 64.4 °F 47.3 °F 54% 30.05 in 10.0 mi NW 4.6 mph - N/A   Clear
9:38 PM 62.6 °F 48.7 °F 60% 30.05 in 10.0 mi Calm Calm - N/A   Clear
9:56 PM 62.6 °F 48.6 °F 60% 30.05 in 10.0 mi NW 3.5 mph - N/A   Clear
10:15 PM 62.2 °F 48.6 °F 61% 30.05 in 10.0 mi Calm Calm - N/A   Clear
10:16 PM 62.2 °F 48.7 °F 61% 30.06 in 10.0 mi Calm Calm - N/A   Clear
10:35 PM 60.3 °F 49.1 °F 67% 30.06 in 10.0 mi Calm Calm - N/A   Clear
10:59 PM 59.5 °F 49.5 °F 69% 30.06 in 10.0 mi Calm Calm - N/A   Clear
11:17 PM 59.0 °F 50.2 °F 73% 30.06 in 10.0 mi Calm Calm - N/A   Clear
11:35 PM 58.6 °F 49.6 °F 72% 30.06 in 10.0 mi Calm Calm - N/A   Clear
11:55 PM 58.3 °F 50.2 °F 74% 30.06 in 10.0 mi Calm Calm - N/A   Mostly Cloudy